UAE7P VCBI-OMDB

Flight info

Callsign UAE7P
Flight time 4h 2m
Altitude 37000
Route BASUR1D BASUR P570 ITURA M762 MIVEK P574 IMPED
Aircraft B77W/H-SDE1E2E3FGHIJ2J3J4J5M1RWXY/LB1D1

Departure

Time 2026-04-22 15:08
Airport Bandaranaike International Colombo Airport (VCBI)

Arrival

Time 2026-04-22 19:11
Airport Dubai International Airport (OMDB)
Time Latitude Longitude Altitude Speed Heading
2026-04-22 14:46 7.17762 79.88465 39 ft 0 kts 212°
2026-04-22 15:01 7.17763 79.88466 39 ft 2 kts 212°
2026-04-22 15:01 7.17783 79.88482 37 ft 4 kts 232°
2026-04-22 15:01 7.17795 79.88505 39 ft 4 kts 261°
2026-04-22 15:01 7.17793 79.88530 35 ft 3 kts 304°
2026-04-22 15:02 7.17791 79.88533 34 ft 0 kts 307°
2026-04-22 15:04 7.17794 79.88529 36 ft 2 kts 308°
2026-04-22 15:04 7.17816 79.88501 36 ft 8 kts 308°
2026-04-22 15:04 7.17867 79.88454 39 ft 12 kts 341°
2026-04-22 15:04 7.17949 79.88489 39 ft 16 kts 36°
2026-04-22 15:05 7.18049 79.88563 39 ft 20 kts 36°
2026-04-22 15:05 7.18174 79.88656 39 ft 24 kts 37°
2026-04-22 15:05 7.18305 79.88756 39 ft 24 kts 37°
2026-04-22 15:05 7.18437 79.88856 40 ft 24 kts 37°
2026-04-22 15:06 7.18568 79.88956 40 ft 24 kts 37°
2026-04-22 15:06 7.18697 79.89056 40 ft 24 kts 37°
2026-04-22 15:06 7.18827 79.89157 41 ft 24 kts 37°
2026-04-22 15:06 7.18960 79.89259 40 ft 24 kts 37°
2026-04-22 15:07 7.19090 79.89357 40 ft 24 kts 37°
2026-04-22 15:07 7.19223 79.89404 40 ft 20 kts 324°
2026-04-22 15:07 7.19295 79.89304 40 ft 10 kts 271°
2026-04-22 15:07 7.19251 79.89251 40 ft 10 kts 220°
2026-04-22 15:08 7.19103 79.89136 41 ft 59 kts 217°
2026-04-22 15:08 7.18537 79.88707 40 ft 142 kts 217°
2026-04-22 15:08 7.17565 79.87970 171 ft 195 kts 216°
2026-04-22 15:08 7.16568 79.87162 1218 ft 180 kts 226°
2026-04-22 15:09 7.16050 79.85970 1817 ft 201 kts 267°
2026-04-22 15:09 7.16269 79.84494 2065 ft 228 kts 283°
2026-04-22 15:09 7.16696 79.82866 2420 ft 251 kts 284°
2026-04-22 15:09 7.17153 79.81117 3020 ft 264 kts 283°
2026-04-22 15:10 7.17612 79.79302 3757 ft 272 kts 283°
2026-04-22 15:10 7.18186 79.77471 4419 ft 279 kts 299°
2026-04-22 15:10 7.19343 79.75889 5088 ft 280 kts 311°
2026-04-22 15:10 7.20583 79.74360 5939 ft 283 kts 309°
2026-04-22 15:11 7.21801 79.72791 6760 ft 285 kts 309°
2026-04-22 15:11 7.23018 79.71208 7580 ft 287 kts 309°
2026-04-22 15:11 7.24238 79.69615 8381 ft 288 kts 308°
2026-04-22 15:11 7.25253 79.67863 9053 ft 293 kts 296°
2026-04-22 15:12 7.26061 79.65961 9803 ft 297 kts 294°
2026-04-22 15:12 7.26873 79.64029 10433 ft 304 kts 295°
2026-04-22 15:12 7.27751 79.62008 10672 ft 328 kts 295°
2026-04-22 15:12 7.28710 79.59833 10870 ft 352 kts 295°
2026-04-22 15:13 7.29751 79.57504 11071 ft 375 kts 295°
2026-04-22 15:13 7.30839 79.55074 11640 ft 386 kts 295°
2026-04-22 15:13 7.31951 79.52591 12338 ft 392 kts 295°
2026-04-22 15:13 7.33062 79.50106 13154 ft 395 kts 295°
2026-04-22 15:14 7.34195 79.47572 13936 ft 399 kts 295°
2026-04-22 15:14 7.35339 79.45013 14627 ft 403 kts 295°
2026-04-22 15:14 7.36496 79.42425 15282 ft 407 kts 295°
2026-04-22 15:14 7.37665 79.39809 15967 ft 411 kts 295°
2026-04-22 15:15 7.38845 79.37169 16636 ft 415 kts 295°
2026-04-22 15:15 7.40036 79.34505 17281 ft 419 kts 295°
2026-04-22 15:15 7.41240 79.31810 17897 ft 424 kts 295°
2026-04-22 15:15 7.42455 79.29090 18480 ft 428 kts 295°
2026-04-22 15:16 7.43681 79.26346 19048 ft 431 kts 295°
2026-04-22 15:16 7.44916 79.23579 19618 ft 434 kts 295°
2026-04-22 15:16 7.46161 79.20789 20146 ft 438 kts 294°
2026-04-22 15:16 7.47418 79.17975 20677 ft 443 kts 294°
2026-04-22 15:17 7.48685 79.15136 21203 ft 446 kts 294°
2026-04-22 15:17 7.49964 79.12268 21726 ft 450 kts 294°
2026-04-22 15:17 7.51254 79.09376 22236 ft 454 kts 294°
2026-04-22 15:17 7.52553 79.06462 22756 ft 458 kts 293°
2026-04-22 15:18 7.53863 79.03525 23287 ft 460 kts 293°
2026-04-22 15:18 7.55179 79.00573 23743 ft 463 kts 293°
2026-04-22 15:18 7.56463 78.97692 24148 ft 466 kts 292°
2026-04-22 15:18 7.57797 78.94698 24536 ft 470 kts 292°
2026-04-22 15:19 7.59140 78.91683 24927 ft 473 kts 293°
2026-04-22 15:19 7.60492 78.88648 25311 ft 476 kts 292°
2026-04-22 15:19 7.61852 78.85590 25702 ft 479 kts 292°
2026-04-22 15:19 7.63220 78.82517 26084 ft 482 kts 292°
2026-04-22 15:20 7.64129 78.80472 26336 ft 484 kts 292°
2026-04-22 15:20 7.65979 78.76314 26840 ft 488 kts 292°
2026-04-22 15:20 7.67352 78.73223 27195 ft 491 kts 292°
2026-04-22 15:20 7.68752 78.70075 27559 ft 494 kts 292°
2026-04-22 15:21 7.70161 78.66904 27899 ft 497 kts 292°
2026-04-22 15:21 7.71576 78.63718 28238 ft 499 kts 292°
2026-04-22 15:21 7.72998 78.60517 28564 ft 502 kts 292°
2026-04-22 15:21 7.74428 78.57296 28872 ft 505 kts 292°
2026-04-22 15:22 7.75867 78.54055 29168 ft 507 kts 292°
2026-04-22 15:22 7.77310 78.50805 29512 ft 508 kts 292°
2026-04-22 15:22 7.78751 78.47558 29946 ft 507 kts 291°
2026-04-22 15:22 7.80191 78.44314 30344 ft 506 kts 291°
2026-04-22 15:23 7.81629 78.41072 30709 ft 506 kts 291°
2026-04-22 15:23 7.83065 78.37834 31049 ft 506 kts 291°
2026-04-22 15:23 7.84502 78.34591 31397 ft 506 kts 291°
2026-04-22 15:23 7.85939 78.31350 31750 ft 506 kts 291°
2026-04-22 15:24 7.87375 78.28108 32112 ft 506 kts 290°
2026-04-22 15:24 7.88811 78.24864 32459 ft 506 kts 290°
2026-04-22 15:24 7.90245 78.21626 32807 ft 506 kts 290°
2026-04-22 15:24 7.91682 78.18381 33154 ft 506 kts 290°
2026-04-22 15:25 7.93116 78.15142 33509 ft 506 kts 290°
2026-04-22 15:25 7.94553 78.11904 33837 ft 506 kts 290°
2026-04-22 15:25 7.95996 78.08664 34140 ft 506 kts 290°
2026-04-22 15:25 7.97435 78.05435 34461 ft 504 kts 290°
2026-04-22 15:26 7.98872 78.02211 34792 ft 503 kts 290°
2026-04-22 15:26 8.00259 77.99096 35110 ft 502 kts 290°
2026-04-22 15:26 8.01686 77.95889 35406 ft 501 kts 290°
2026-04-22 15:26 8.03108 77.92690 35762 ft 498 kts 289°
2026-04-22 15:27 8.05952 77.86284 35860 ft 502 kts 289°
2026-04-22 15:27 8.08797 77.79880 35847 ft 497 kts 289°
2026-04-22 15:28 8.11142 77.74600 35857 ft 495 kts 289°
2026-04-22 15:28 8.13951 77.68268 35858 ft 494 kts 289°
2026-04-22 15:29 8.16756 77.61941 35862 ft 494 kts 289°
2026-04-22 15:30 8.20964 77.52444 35866 ft 495 kts 289°
2026-04-22 15:30 8.23776 77.46095 35857 ft 496 kts 289°
2026-04-22 15:31 8.26590 77.39737 35867 ft 496 kts 289°
2026-04-22 15:31 8.29403 77.33381 35858 ft 496 kts 289°
2026-04-22 15:32 8.32215 77.27026 35856 ft 496 kts 289°
2026-04-22 15:32 8.35026 77.20665 35856 ft 496 kts 289°
2026-04-22 15:33 8.37818 77.14344 35850 ft 496 kts 289°
2026-04-22 15:33 8.40628 77.07981 35846 ft 496 kts 289°
2026-04-22 15:34 8.43452 77.01581 35843 ft 496 kts 289°
2026-04-22 15:34 8.46218 76.95313 35831 ft 496 kts 289°
2026-04-22 15:35 8.49599 76.89258 35827 ft 503 kts 301°
2026-04-22 15:35 8.53709 76.83538 35843 ft 503 kts 301°
2026-04-22 15:36 8.57842 76.77848 35835 ft 502 kts 301°
2026-04-22 15:36 8.61938 76.72143 35838 ft 501 kts 301°
2026-04-22 15:37 8.66005 76.66430 35839 ft 500 kts 301°
2026-04-22 15:37 8.70060 76.60721 35844 ft 500 kts 301°
2026-04-22 15:38 8.74115 76.55011 35845 ft 500 kts 301°
2026-04-22 15:38 8.80197 76.46450 35853 ft 500 kts 301°
2026-04-22 15:39 8.84253 76.40739 35848 ft 500 kts 301°
2026-04-22 15:39 8.88302 76.35034 35855 ft 499 kts 301°
2026-04-22 15:40 8.92345 76.29335 35856 ft 498 kts 301°
2026-04-22 15:40 8.96382 76.23643 35857 ft 498 kts 301°
2026-04-22 15:41 9.00412 76.17957 35862 ft 497 kts 300°
2026-04-22 15:41 9.04442 76.12270 35867 ft 497 kts 300°
2026-04-22 15:42 9.08468 76.06584 35865 ft 497 kts 300°
2026-04-22 15:42 9.12493 76.00899 35866 ft 497 kts 300°
2026-04-22 15:43 9.16461 75.95291 35869 ft 497 kts 300°
2026-04-22 15:43 9.20482 75.89605 35871 ft 497 kts 300°
2026-04-22 15:44 9.24503 75.83917 35865 ft 497 kts 300°
2026-04-22 15:44 9.28520 75.78233 35860 ft 496 kts 300°
2026-04-22 15:45 9.32531 75.72555 35861 ft 495 kts 300°
2026-04-22 15:45 9.36533 75.66887 35858 ft 494 kts 300°
2026-04-22 15:46 9.40500 75.61265 35860 ft 493 kts 300°
2026-04-22 15:46 9.44487 75.55612 35859 ft 493 kts 300°
2026-04-22 15:47 9.48467 75.49967 35861 ft 492 kts 300°
2026-04-22 15:47 9.52446 75.44320 35860 ft 492 kts 300°
2026-04-22 15:48 9.56422 75.38676 35857 ft 492 kts 300°
2026-04-22 15:48 9.60395 75.33033 35850 ft 492 kts 300°
2026-04-22 15:49 9.64368 75.27386 35854 ft 492 kts 300°
2026-04-22 15:49 9.68338 75.21743 35853 ft 492 kts 300°
2026-04-22 15:50 9.72308 75.16096 35851 ft 492 kts 300°
2026-04-22 15:50 9.76277 75.10449 35854 ft 492 kts 300°
2026-04-22 15:51 9.80245 75.04799 35857 ft 492 kts 300°
2026-04-22 15:51 9.84159 74.99223 35850 ft 492 kts 300°
2026-04-22 15:52 9.88127 74.93569 35860 ft 492 kts 300°
2026-04-22 15:52 9.92072 74.87945 35854 ft 493 kts 300°
2026-04-22 15:53 9.96041 74.82283 35854 ft 493 kts 300°
2026-04-22 15:53 10.00009 74.76620 35855 ft 493 kts 300°
2026-04-22 15:54 10.03979 74.70953 35855 ft 493 kts 300°
2026-04-22 15:54 10.07946 74.65285 35855 ft 493 kts 300°
2026-04-22 15:55 10.11913 74.59616 35854 ft 493 kts 300°
2026-04-22 15:55 10.15878 74.53946 35855 ft 493 kts 300°
2026-04-22 15:56 10.19843 74.48274 35864 ft 493 kts 299°
2026-04-22 15:56 10.23809 74.42597 35856 ft 493 kts 299°
2026-04-22 15:57 10.27775 74.36917 35855 ft 493 kts 299°
2026-04-22 15:57 10.31743 74.31231 35856 ft 493 kts 299°
2026-04-22 15:58 10.35710 74.25543 35854 ft 494 kts 299°
2026-04-22 15:58 10.39681 74.19847 35851 ft 494 kts 299°
2026-04-22 15:59 10.43673 74.14162 35850 ft 495 kts 299°
2026-04-22 15:59 10.47690 74.08487 35850 ft 495 kts 300°
2026-04-22 16:00 10.51706 74.02811 35852 ft 494 kts 299°
2026-04-22 16:00 10.55655 73.97217 35867 ft 493 kts 299°
2026-04-22 16:01 10.59644 73.91560 35856 ft 491 kts 299°
2026-04-22 16:01 10.63616 73.85922 35849 ft 489 kts 299°
2026-04-22 16:02 10.67568 73.80311 35848 ft 487 kts 299°
2026-04-22 16:02 10.71509 73.74710 35856 ft 486 kts 299°
2026-04-22 16:03 10.75443 73.69118 35857 ft 486 kts 299°
2026-04-22 16:03 10.79375 73.63525 35862 ft 486 kts 299°
2026-04-22 16:04 10.83312 73.57922 35859 ft 487 kts 299°
2026-04-22 16:04 10.87222 73.52355 35866 ft 487 kts 298°
2026-04-22 16:05 10.91161 73.46746 35856 ft 487 kts 298°
2026-04-22 16:05 10.95098 73.41135 35858 ft 487 kts 298°
2026-04-22 16:06 10.99036 73.35520 35858 ft 487 kts 298°
2026-04-22 16:06 11.02966 73.29914 35862 ft 487 kts 298°
2026-04-22 16:07 11.06902 73.24296 35859 ft 487 kts 298°
2026-04-22 16:07 11.10838 73.18675 35857 ft 487 kts 298°
2026-04-22 16:08 11.14773 73.13052 35857 ft 487 kts 298°
2026-04-22 16:08 11.18707 73.07428 35857 ft 487 kts 298°
2026-04-22 16:09 11.22638 73.01805 35858 ft 487 kts 298°
2026-04-22 16:09 11.26514 72.96257 35861 ft 487 kts 298°
2026-04-22 16:10 11.30443 72.90632 35865 ft 487 kts 298°
2026-04-22 16:10 11.34342 72.85046 35860 ft 487 kts 298°
2026-04-22 16:11 11.38265 72.79422 35862 ft 486 kts 298°
2026-04-22 16:11 11.42182 72.73805 35860 ft 486 kts 298°
2026-04-22 16:12 11.46096 72.68187 35860 ft 486 kts 298°
2026-04-22 16:12 11.50004 72.62576 35862 ft 485 kts 298°
2026-04-22 16:13 11.53913 72.56959 35870 ft 486 kts 298°
2026-04-22 16:13 11.57822 72.51339 35864 ft 486 kts 298°
2026-04-22 16:14 11.61732 72.45717 35859 ft 486 kts 298°
2026-04-22 16:14 11.65636 72.40098 35860 ft 485 kts 298°
2026-04-22 16:15 11.69538 72.34480 35861 ft 485 kts 298°
2026-04-22 16:15 11.73438 72.28861 35860 ft 485 kts 298°
2026-04-22 16:16 11.77338 72.23239 35863 ft 485 kts 298°
2026-04-22 16:16 11.80576 72.18568 35861 ft 485 kts 298°
2026-04-22 16:17 11.85105 72.12031 35873 ft 486 kts 298°
2026-04-22 16:17 11.89004 72.06399 35858 ft 486 kts 298°
2026-04-22 16:18 11.92903 72.00767 35864 ft 486 kts 298°
2026-04-22 16:18 11.96159 71.96157 35862 ft 487 kts 299°
2026-04-22 16:19 12.00201 71.90620 35862 ft 487 kts 300°
2026-04-22 16:19 12.04220 71.85122 35863 ft 486 kts 300°
2026-04-22 16:20 12.08243 71.79586 35859 ft 485 kts 300°
2026-04-22 16:20 12.12249 71.74054 35861 ft 484 kts 300°
2026-04-22 16:21 12.16245 71.68530 35881 ft 483 kts 300°
2026-04-22 16:21 12.20238 71.63009 35855 ft 483 kts 300°
2026-04-22 16:22 12.26222 71.54732 35868 ft 482 kts 300°
2026-04-22 16:23 12.32200 71.46455 35865 ft 482 kts 300°
2026-04-22 16:23 12.36182 71.40937 35868 ft 482 kts 300°
2026-04-22 16:24 12.42154 71.32655 35866 ft 482 kts 300°
2026-04-22 16:25 12.46137 71.27128 35888 ft 483 kts 300°
2026-04-22 16:25 12.52115 71.18833 35868 ft 483 kts 300°
2026-04-22 16:26 12.56103 71.13301 35869 ft 483 kts 300°
2026-04-22 16:26 12.60090 71.07765 35869 ft 483 kts 300°
2026-04-22 16:27 12.64070 71.02232 35868 ft 483 kts 300°
2026-04-22 16:27 12.67992 70.96777 35869 ft 482 kts 300°
2026-04-22 16:28 12.71970 70.91242 35868 ft 482 kts 300°
2026-04-22 16:28 12.75918 70.85743 35874 ft 482 kts 300°
2026-04-22 16:29 12.79914 70.80176 35881 ft 482 kts 300°
2026-04-22 16:29 12.83853 70.74686 35870 ft 481 kts 300°
2026-04-22 16:30 12.87807 70.69169 35876 ft 480 kts 300°
2026-04-22 16:30 12.91755 70.63658 35876 ft 479 kts 300°
2026-04-22 16:31 12.95697 70.58152 35874 ft 479 kts 300°
2026-04-22 16:31 12.99632 70.52651 35881 ft 478 kts 301°
2026-04-22 16:32 13.03560 70.47158 35874 ft 478 kts 301°
2026-04-22 16:32 13.07482 70.41662 35870 ft 477 kts 301°
2026-04-22 16:33 13.11388 70.36164 35880 ft 477 kts 301°
2026-04-22 16:33 13.15287 70.30668 35873 ft 476 kts 301°
2026-04-22 16:34 13.19180 70.25179 35876 ft 475 kts 301°
2026-04-22 16:34 13.23068 70.19694 35880 ft 475 kts 301°
2026-04-22 16:35 13.26950 70.14212 35878 ft 475 kts 301°
2026-04-22 16:35 13.30831 70.08734 35876 ft 474 kts 301°
2026-04-22 16:36 13.34708 70.03257 35877 ft 474 kts 301°
2026-04-22 16:36 13.38513 69.97875 35877 ft 474 kts 301°
2026-04-22 16:37 13.42383 69.92399 35888 ft 474 kts 302°
2026-04-22 16:37 13.46255 69.86917 35881 ft 474 kts 302°
2026-04-22 16:38 13.50125 69.81431 35883 ft 474 kts 302°
2026-04-22 16:38 13.53993 69.75952 35880 ft 473 kts 302°
2026-04-22 16:39 13.57855 69.70476 35880 ft 473 kts 302°
2026-04-22 16:39 13.61687 69.65035 35879 ft 473 kts 302°
2026-04-22 16:40 13.65569 69.59521 35880 ft 473 kts 302°
2026-04-22 16:41 13.71322 69.51342 35890 ft 473 kts 303°
2026-04-22 16:41 13.75176 69.45859 35876 ft 473 kts 303°
2026-04-22 16:42 13.79028 69.40378 35882 ft 473 kts 303°
2026-04-22 16:42 13.82875 69.34898 35882 ft 472 kts 303°
2026-04-22 16:43 13.86720 69.29418 35882 ft 472 kts 303°
2026-04-22 16:43 13.90564 69.23936 35882 ft 472 kts 303°
2026-04-22 16:44 13.94403 69.18455 35881 ft 472 kts 303°
2026-04-22 16:44 13.98240 69.12976 35886 ft 472 kts 303°
2026-04-22 16:45 14.02069 69.07503 35885 ft 471 kts 304°
2026-04-22 16:45 14.05894 69.02032 35884 ft 470 kts 304°
2026-04-22 16:46 14.09664 68.96643 35884 ft 470 kts 304°
2026-04-22 16:46 14.13506 68.91204 35885 ft 469 kts 304°
2026-04-22 16:47 14.17352 68.85770 35879 ft 469 kts 304°
2026-04-22 16:47 14.20542 68.81255 35888 ft 469 kts 304°
2026-04-22 16:48 14.25022 68.74905 35881 ft 468 kts 304°
2026-04-22 16:48 14.28849 68.69474 35885 ft 468 kts 304°
2026-04-22 16:49 14.32676 68.64039 35884 ft 468 kts 304°
2026-04-22 16:49 14.36502 68.58602 35885 ft 468 kts 304°
2026-04-22 16:50 14.40329 68.53159 35885 ft 469 kts 304°
2026-04-22 16:50 14.44154 68.47716 35885 ft 469 kts 304°
2026-04-22 16:51 14.47979 68.42270 35884 ft 469 kts 304°
2026-04-22 16:51 14.51805 68.36819 35885 ft 469 kts 304°
2026-04-22 16:52 14.55628 68.31368 35885 ft 469 kts 304°
2026-04-22 16:52 14.59452 68.25913 35897 ft 469 kts 304°
2026-04-22 16:53 14.63272 68.20459 35885 ft 469 kts 304°
2026-04-22 16:53 14.67089 68.15006 35888 ft 468 kts 304°
2026-04-22 16:54 14.70897 68.09562 35890 ft 467 kts 304°
2026-04-22 16:54 14.74676 68.04156 35890 ft 467 kts 304°
2026-04-22 16:55 14.78422 67.98793 35889 ft 467 kts 304°
2026-04-22 16:55 14.82216 67.93357 35890 ft 466 kts 304°
2026-04-22 16:56 14.86011 67.87916 35889 ft 466 kts 304°
2026-04-22 16:56 14.89804 67.82476 35897 ft 467 kts 304°
2026-04-22 16:57 14.93596 67.77033 35892 ft 467 kts 304°
2026-04-22 16:57 14.97387 67.71586 35894 ft 467 kts 304°
2026-04-22 16:58 15.00533 67.67064 35895 ft 467 kts 304°
2026-04-22 16:58 15.04962 67.60692 35893 ft 467 kts 304°
2026-04-22 16:59 15.08750 67.55239 35892 ft 467 kts 304°
2026-04-22 16:59 15.12534 67.49789 35897 ft 466 kts 304°
2026-04-22 17:00 15.16316 67.44336 35909 ft 466 kts 304°
2026-04-22 17:00 15.21983 67.36161 35900 ft 466 kts 304°
2026-04-22 17:01 15.25754 67.30714 35892 ft 465 kts 304°
2026-04-22 17:01 15.29522 67.25269 35898 ft 465 kts 304°
2026-04-22 17:02 15.33288 67.19823 35897 ft 465 kts 304°
2026-04-22 17:02 15.37027 67.14412 35898 ft 465 kts 304°
2026-04-22 17:03 15.40811 67.08931 35897 ft 465 kts 304°
2026-04-22 17:03 15.44545 67.03520 35914 ft 464 kts 304°
2026-04-22 17:04 15.48251 66.98144 35894 ft 465 kts 304°
2026-04-22 17:04 15.52008 66.92691 35899 ft 465 kts 304°
2026-04-22 17:05 15.55130 66.88156 35896 ft 465 kts 305°
2026-04-22 17:05 15.58884 66.82701 35902 ft 465 kts 305°
2026-04-22 17:06 15.62677 66.77270 35897 ft 465 kts 305°
2026-04-22 17:06 15.66482 66.71854 35897 ft 465 kts 305°
2026-04-22 17:07 15.70285 66.66430 35900 ft 465 kts 305°
2026-04-22 17:07 15.74083 66.61000 35911 ft 465 kts 305°
2026-04-22 17:08 15.77880 66.55563 35897 ft 465 kts 306°
2026-04-22 17:08 15.81673 66.50129 35897 ft 465 kts 306°
2026-04-22 17:09 15.85464 66.44694 35897 ft 465 kts 306°
2026-04-22 17:09 15.89253 66.39256 35900 ft 464 kts 306°
2026-04-22 17:10 15.93036 66.33824 35901 ft 464 kts 305°
2026-04-22 17:10 15.96821 66.28386 35905 ft 464 kts 305°
2026-04-22 17:11 16.00595 66.22958 35914 ft 464 kts 306°
2026-04-22 17:11 16.04373 66.17523 35902 ft 464 kts 306°
2026-04-22 17:12 16.08121 66.12125 35904 ft 463 kts 306°
2026-04-22 17:12 16.11890 66.06693 35903 ft 463 kts 306°
2026-04-22 17:13 16.15653 66.01266 35904 ft 463 kts 306°
2026-04-22 17:13 16.19341 65.95942 35905 ft 462 kts 306°
2026-04-22 17:14 16.23100 65.90512 35910 ft 462 kts 306°
2026-04-22 17:14 16.26854 65.85086 35900 ft 462 kts 306°
2026-04-22 17:15 16.30606 65.79661 35907 ft 462 kts 306°
2026-04-22 17:15 16.34353 65.74237 35905 ft 461 kts 306°
2026-04-22 17:16 16.38100 65.68808 35905 ft 461 kts 306°
2026-04-22 17:16 16.41843 65.63381 35907 ft 461 kts 306°
2026-04-22 17:17 16.45583 65.57954 35904 ft 461 kts 306°
2026-04-22 17:17 16.49318 65.52530 35907 ft 460 kts 306°
2026-04-22 17:18 16.53048 65.47110 35910 ft 460 kts 306°
2026-04-22 17:18 16.56773 65.41693 35915 ft 460 kts 306°
2026-04-22 17:19 16.64198 65.30882 35910 ft 460 kts 306°
2026-04-22 17:20 16.71640 65.20031 35913 ft 460 kts 306°
2026-04-22 17:21 16.77217 65.11889 35913 ft 460 kts 306°
2026-04-22 17:22 16.82790 65.03742 35920 ft 460 kts 306°
2026-04-22 17:23 16.88313 64.95660 35904 ft 460 kts 306°
2026-04-22 17:23 16.93882 64.87499 35912 ft 460 kts 306°
2026-04-22 17:24 16.97596 64.82053 35913 ft 460 kts 306°
2026-04-22 17:24 17.01299 64.76616 35911 ft 460 kts 306°
2026-04-22 17:25 17.05009 64.71166 35913 ft 460 kts 306°
2026-04-22 17:25 17.08718 64.65713 35913 ft 460 kts 306°
2026-04-22 17:26 17.12424 64.60261 35913 ft 460 kts 306°
2026-04-22 17:26 17.16131 64.54802 35913 ft 460 kts 306°
2026-04-22 17:27 17.19835 64.49344 35912 ft 460 kts 306°
2026-04-22 17:27 17.23536 64.43883 35913 ft 460 kts 306°
2026-04-22 17:28 17.27212 64.38458 35914 ft 460 kts 306°
2026-04-22 17:28 17.30950 64.33023 35914 ft 460 kts 307°
2026-04-22 17:29 17.34759 64.27652 35922 ft 459 kts 307°
2026-04-22 17:29 17.38570 64.22286 35916 ft 459 kts 307°
2026-04-22 17:30 17.42370 64.16907 35914 ft 459 kts 307°
2026-04-22 17:30 17.46161 64.11525 35915 ft 459 kts 307°
2026-04-22 17:31 17.49949 64.06140 35918 ft 459 kts 307°
2026-04-22 17:31 17.53737 64.00751 35918 ft 459 kts 307°
2026-04-22 17:32 17.57467 63.95441 35912 ft 459 kts 307°
2026-04-22 17:32 17.61246 63.90057 35921 ft 458 kts 307°
2026-04-22 17:33 17.65023 63.84672 35916 ft 459 kts 307°
2026-04-22 17:33 17.68801 63.79281 35919 ft 459 kts 307°
2026-04-22 17:34 17.72575 63.73891 35913 ft 459 kts 307°
2026-04-22 17:34 17.76346 63.68501 35921 ft 458 kts 307°
2026-04-22 17:35 17.80110 63.63117 35916 ft 457 kts 307°
2026-04-22 17:35 17.83871 63.57732 35916 ft 457 kts 307°
2026-04-22 17:36 17.87626 63.52352 35924 ft 457 kts 307°
2026-04-22 17:36 17.91379 63.46970 35913 ft 457 kts 307°
2026-04-22 17:37 17.95130 63.41587 35913 ft 456 kts 307°
2026-04-22 17:37 17.98872 63.36212 35917 ft 455 kts 307°
2026-04-22 17:38 18.02599 63.30854 35913 ft 455 kts 307°
2026-04-22 17:38 18.06302 63.25528 35914 ft 454 kts 307°
2026-04-22 17:39 18.10026 63.20166 35914 ft 454 kts 307°
2026-04-22 17:40 18.15606 63.12124 35914 ft 454 kts 307°
2026-04-22 17:40 18.19323 63.06759 35915 ft 454 kts 307°
2026-04-22 17:41 18.23037 63.01397 35916 ft 453 kts 307°
2026-04-22 17:41 18.26693 62.96113 35915 ft 453 kts 307°
2026-04-22 17:42 18.30398 62.90753 35916 ft 453 kts 307°
2026-04-22 17:42 18.33475 62.86300 35918 ft 453 kts 307°
2026-04-22 17:43 18.37801 62.80033 35922 ft 452 kts 307°
2026-04-22 17:43 18.41496 62.74674 35916 ft 452 kts 307°
2026-04-22 17:44 18.45187 62.69317 35912 ft 452 kts 307°
2026-04-22 17:44 18.48875 62.63960 35915 ft 452 kts 307°
2026-04-22 17:45 18.52561 62.58601 35913 ft 452 kts 307°
2026-04-22 17:45 18.56246 62.53239 35915 ft 452 kts 307°
2026-04-22 17:46 18.59923 62.47875 35913 ft 451 kts 307°
2026-04-22 17:46 18.63570 62.42495 35918 ft 451 kts 307°
2026-04-22 17:47 18.67212 62.37105 35910 ft 451 kts 307°
2026-04-22 17:47 18.70854 62.31712 35913 ft 451 kts 307°
2026-04-22 17:48 18.73880 62.27233 35914 ft 451 kts 307°
2026-04-22 17:48 18.78138 62.20928 35903 ft 451 kts 307°
2026-04-22 17:49 18.81749 62.15574 35918 ft 451 kts 307°
2026-04-22 17:49 18.85386 62.10179 35912 ft 451 kts 307°
2026-04-22 17:50 18.89020 62.04782 35913 ft 451 kts 307°
2026-04-22 17:50 18.92606 61.99453 35914 ft 451 kts 307°
2026-04-22 17:51 18.96242 61.94043 35910 ft 452 kts 307°
2026-04-22 17:51 18.99878 61.88629 35908 ft 452 kts 307°
2026-04-22 17:52 19.03503 61.83228 35909 ft 452 kts 307°
2026-04-22 17:52 19.07135 61.77811 35907 ft 452 kts 307°
2026-04-22 17:53 19.10763 61.72395 35915 ft 451 kts 307°
2026-04-22 17:53 19.14393 61.66972 35907 ft 451 kts 307°
2026-04-22 17:54 19.18017 61.61552 35905 ft 451 kts 306°
2026-04-22 17:54 19.21029 61.57044 35906 ft 451 kts 306°
2026-04-22 17:55 19.24651 61.51620 35910 ft 451 kts 306°
2026-04-22 17:55 19.28270 61.46193 35903 ft 451 kts 306°
2026-04-22 17:56 19.31891 61.40761 35906 ft 451 kts 306°
2026-04-22 17:56 19.35507 61.35331 35908 ft 451 kts 306°
2026-04-22 17:57 19.39123 61.29895 35904 ft 451 kts 306°
2026-04-22 17:57 19.42734 61.24463 35902 ft 451 kts 306°
2026-04-22 17:58 19.46338 61.19035 35904 ft 450 kts 306°
2026-04-22 17:58 19.49940 61.13607 35903 ft 450 kts 306°
2026-04-22 17:59 19.53538 61.08179 35901 ft 450 kts 306°
2026-04-22 17:59 19.57132 61.02753 35899 ft 449 kts 306°
2026-04-22 18:00 19.60061 60.98327 35898 ft 449 kts 306°
2026-04-22 18:00 19.64246 60.91997 35899 ft 448 kts 306°
2026-04-22 18:01 19.67795 60.86624 35902 ft 447 kts 306°
2026-04-22 18:01 19.71388 60.81180 35898 ft 447 kts 306°
2026-04-22 18:02 19.74956 60.75769 35898 ft 447 kts 306°
2026-04-22 18:02 19.78517 60.70363 35901 ft 447 kts 306°
2026-04-22 18:03 19.82074 60.64958 35898 ft 446 kts 306°
2026-04-22 18:03 19.85627 60.59555 35894 ft 446 kts 306°
2026-04-22 18:04 19.89177 60.54151 35895 ft 446 kts 306°
2026-04-22 18:04 19.92721 60.48750 35891 ft 445 kts 306°
2026-04-22 18:05 19.96262 60.43349 35901 ft 445 kts 306°
2026-04-22 18:05 19.99774 60.37988 35886 ft 445 kts 306°
2026-04-22 18:06 20.03430 60.32721 35881 ft 443 kts 313°
2026-04-22 18:06 20.07959 60.28288 35887 ft 443 kts 321°
2026-04-22 18:07 20.13130 60.24726 35894 ft 443 kts 328°
2026-04-22 18:07 20.18461 60.21413 35888 ft 444 kts 328°
2026-04-22 18:08 20.23791 60.18085 35888 ft 444 kts 328°
2026-04-22 18:08 20.29103 60.14729 35886 ft 444 kts 328°
2026-04-22 18:09 20.34408 60.11359 35887 ft 444 kts 328°
2026-04-22 18:09 20.39711 60.07985 35881 ft 444 kts 328°
2026-04-22 18:10 20.45010 60.04613 35879 ft 444 kts 328°
2026-04-22 18:10 20.50308 60.01239 35881 ft 443 kts 328°
2026-04-22 18:11 20.55527 59.97913 35881 ft 443 kts 328°
2026-04-22 18:11 20.60821 59.94537 35882 ft 443 kts 327°
2026-04-22 18:12 20.66113 59.91158 35876 ft 443 kts 327°
2026-04-22 18:12 20.70515 59.88346 35880 ft 443 kts 327°
2026-04-22 18:13 20.76698 59.84393 35873 ft 443 kts 327°
2026-04-22 18:13 20.81979 59.81013 35873 ft 442 kts 327°
2026-04-22 18:14 20.87254 59.77635 35873 ft 442 kts 327°
2026-04-22 18:14 20.92490 59.74277 35871 ft 442 kts 327°
2026-04-22 18:15 20.97763 59.70895 35868 ft 442 kts 327°
2026-04-22 18:15 21.03021 59.67517 35871 ft 442 kts 327°
2026-04-22 18:16 21.08285 59.64123 35884 ft 442 kts 327°
2026-04-22 18:16 21.13551 59.60723 35869 ft 442 kts 327°
2026-04-22 18:17 21.18818 59.57321 35860 ft 442 kts 327°
2026-04-22 18:17 21.24082 59.53919 35875 ft 442 kts 327°
2026-04-22 18:18 21.29342 59.50519 35872 ft 441 kts 327°
2026-04-22 18:18 21.34598 59.47122 35873 ft 441 kts 327°
2026-04-22 18:19 21.39854 59.43720 35863 ft 441 kts 327°
2026-04-22 18:19 21.45110 59.40315 35860 ft 441 kts 327°
2026-04-22 18:20 21.50365 59.36907 35868 ft 441 kts 326°
2026-04-22 18:20 21.55620 59.33496 35872 ft 441 kts 326°
2026-04-22 18:21 21.60843 59.30105 35874 ft 442 kts 326°
2026-04-22 18:21 21.66106 59.26689 35871 ft 442 kts 326°
2026-04-22 18:22 21.71368 59.23276 35879 ft 442 kts 326°
2026-04-22 18:22 21.76627 59.19861 35879 ft 442 kts 326°
2026-04-22 18:23 21.81887 59.16441 35874 ft 441 kts 326°
2026-04-22 18:23 21.87143 59.13019 35890 ft 442 kts 326°
2026-04-22 18:24 21.95036 59.07876 35882 ft 442 kts 326°
2026-04-22 18:25 22.02916 59.02734 35889 ft 442 kts 326°
2026-04-22 18:25 22.08100 58.99348 35892 ft 442 kts 326°
2026-04-22 18:26 22.15988 58.94190 35890 ft 442 kts 326°
2026-04-22 18:26 22.21240 58.90751 35892 ft 441 kts 326°
2026-04-22 18:27 22.26489 58.87312 35891 ft 441 kts 326°
2026-04-22 18:27 22.31734 58.83870 35893 ft 441 kts 326°
2026-04-22 18:28 22.36981 58.80422 35897 ft 441 kts 326°
2026-04-22 18:28 22.42230 58.76970 35893 ft 442 kts 326°
2026-04-22 18:29 22.47481 58.73513 35897 ft 442 kts 326°
2026-04-22 18:29 22.52732 58.70053 35896 ft 442 kts 326°
2026-04-22 18:30 22.60616 58.64852 35904 ft 443 kts 325°
2026-04-22 18:31 22.65878 58.61378 35895 ft 443 kts 325°
2026-04-22 18:31 22.71141 58.57903 35899 ft 443 kts 325°
2026-04-22 18:32 22.76410 58.54423 35894 ft 444 kts 325°
2026-04-22 18:32 22.81678 58.50940 35903 ft 443 kts 325°
2026-04-22 18:33 22.86943 58.47454 35902 ft 444 kts 325°
2026-04-22 18:33 22.92207 58.43966 35890 ft 443 kts 325°
2026-04-22 18:34 22.97462 58.40481 35889 ft 443 kts 325°
2026-04-22 18:34 23.02703 58.37004 35864 ft 442 kts 325°
2026-04-22 18:35 23.07943 58.33514 35884 ft 442 kts 324°
2026-04-22 18:35 23.13149 58.30035 35869 ft 442 kts 324°
2026-04-22 18:36 23.18395 58.26531 35874 ft 442 kts 324°
2026-04-22 18:36 23.23643 58.23025 35867 ft 443 kts 325°
2026-04-22 18:37 23.28895 58.19509 35867 ft 444 kts 324°
2026-04-22 18:37 23.33267 58.16581 35835 ft 444 kts 324°
2026-04-22 18:38 23.39059 58.11982 35840 ft 439 kts 314°
2026-04-22 18:38 23.43192 58.07134 35833 ft 436 kts 305°
2026-04-22 18:39 23.48389 57.99117 35820 ft 437 kts 303°
2026-04-22 18:39 23.51893 57.93702 35845 ft 437 kts 303°
2026-04-22 18:40 23.55412 57.88309 35831 ft 436 kts 303°
2026-04-22 18:40 23.58918 57.82930 35829 ft 435 kts 303°
2026-04-22 18:41 23.62571 57.77683 35840 ft 434 kts 306°
2026-04-22 18:41 23.66328 57.72527 35827 ft 434 kts 306°
2026-04-22 18:42 23.69424 57.68228 35836 ft 434 kts 306°
2026-04-22 18:42 23.73131 57.63034 35843 ft 434 kts 306°
2026-04-22 18:43 23.76833 57.57838 35837 ft 434 kts 306°
2026-04-22 18:43 23.80540 57.52640 35831 ft 434 kts 306°
2026-04-22 18:44 23.84246 57.47441 35838 ft 434 kts 306°
2026-04-22 18:44 23.87951 57.42236 35828 ft 434 kts 306°
2026-04-22 18:45 23.91654 57.37029 35831 ft 434 kts 305°
2026-04-22 18:45 23.95355 57.31817 35834 ft 434 kts 305°
2026-04-22 18:46 23.99055 57.26603 35836 ft 434 kts 305°
2026-04-22 18:46 24.02741 57.21401 35835 ft 434 kts 305°
2026-04-22 18:47 24.04592 57.18786 35452 ft 440 kts 305°
2026-04-22 18:47 24.06388 57.16247 34876 ft 444 kts 305°
2026-04-22 18:47 24.08270 57.13587 34306 ft 440 kts 306°
2026-04-22 18:47 24.10138 57.10947 33755 ft 437 kts 306°
2026-04-22 18:48 24.11992 57.08325 33152 ft 434 kts 306°
2026-04-22 18:48 24.13805 57.05758 32607 ft 430 kts 305°
2026-04-22 18:48 24.15626 57.03178 32077 ft 427 kts 305°
2026-04-22 18:48 24.17437 57.00611 31546 ft 424 kts 305°
2026-04-22 18:49 24.19173 56.98148 31053 ft 421 kts 305°
2026-04-22 18:49 24.20956 56.95619 30543 ft 418 kts 305°
2026-04-22 18:49 24.22750 56.93070 30056 ft 416 kts 305°
2026-04-22 18:49 24.24486 56.90598 29491 ft 414 kts 305°
2026-04-22 18:50 24.26232 56.88107 28938 ft 411 kts 305°
2026-04-22 18:50 24.27968 56.85629 28389 ft 409 kts 305°
2026-04-22 18:50 24.29691 56.83167 27883 ft 406 kts 305°
2026-04-22 18:50 24.31405 56.80719 27385 ft 403 kts 305°
2026-04-22 18:51 24.33106 56.78288 26888 ft 401 kts 305°
2026-04-22 18:51 24.34797 56.75869 26399 ft 399 kts 305°
2026-04-22 18:51 24.36479 56.73462 25915 ft 397 kts 305°
2026-04-22 18:51 24.38152 56.71067 25438 ft 395 kts 305°
2026-04-22 18:52 24.39819 56.68678 24948 ft 394 kts 305°
2026-04-22 18:52 24.41483 56.66295 24468 ft 393 kts 305°
2026-04-22 18:52 24.43147 56.63919 23976 ft 392 kts 306°
2026-04-22 18:52 24.44935 56.61661 23498 ft 392 kts 310°
2026-04-22 18:53 24.46806 56.59481 22960 ft 392 kts 311°
2026-04-22 18:53 24.48680 56.57319 22460 ft 390 kts 311°
2026-04-22 18:53 24.50544 56.55167 21980 ft 388 kts 311°
2026-04-22 18:53 24.52392 56.53026 21508 ft 386 kts 311°
2026-04-22 18:54 24.54229 56.50889 21062 ft 383 kts 311°
2026-04-22 18:54 24.56052 56.48762 20605 ft 382 kts 311°
2026-04-22 18:54 24.57867 56.46640 20144 ft 380 kts 311°
2026-04-22 18:54 24.59672 56.44530 19702 ft 379 kts 311°
2026-04-22 18:55 24.61474 56.42420 19243 ft 378 kts 311°
2026-04-22 18:55 24.63268 56.40320 18787 ft 377 kts 311°
2026-04-22 18:55 24.65063 56.38217 18332 ft 377 kts 311°
2026-04-22 18:55 24.66853 56.36121 17838 ft 376 kts 312°
2026-04-22 18:56 24.68639 56.34028 17345 ft 375 kts 312°
2026-04-22 18:56 24.70469 56.32008 16859 ft 371 kts 319°
2026-04-22 18:56 24.72598 56.30405 16431 ft 371 kts 329°
2026-04-22 18:56 24.74936 56.29211 15996 ft 372 kts 339°
2026-04-22 18:57 24.77385 56.28429 15553 ft 371 kts 343°
2026-04-22 18:57 24.79877 56.27732 15122 ft 369 kts 343°
2026-04-22 18:57 24.82362 56.27021 14681 ft 368 kts 343°
2026-04-22 18:57 24.84831 56.26288 14251 ft 364 kts 341°
2026-04-22 18:58 24.87085 56.25127 13827 ft 357 kts 322°
2026-04-22 18:58 24.88878 56.23265 13395 ft 353 kts 306°
2026-04-22 18:58 24.90168 56.20995 12931 ft 348 kts 297°
2026-04-22 18:58 24.91317 56.18668 12633 ft 343 kts 297°
2026-04-22 18:59 24.92441 56.16390 12466 ft 334 kts 297°
2026-04-22 18:59 24.93549 56.14176 12337 ft 326 kts 297°
2026-04-22 18:59 24.94640 56.12025 12190 ft 316 kts 297°
2026-04-22 18:59 24.95710 56.09924 11848 ft 314 kts 297°
2026-04-22 19:00 24.96782 56.07819 11371 ft 315 kts 297°
2026-04-22 19:00 24.97628 56.05634 11057 ft 306 kts 283°
2026-04-22 19:00 24.98075 56.03369 10700 ft 303 kts 279°
2026-04-22 19:00 24.98483 56.01081 10265 ft 306 kts 279°
2026-04-22 19:01 24.98883 55.98850 9851 ft 307 kts 279°
2026-04-22 19:01 24.99307 55.96544 9446 ft 307 kts 280°
2026-04-22 19:01 24.99739 55.94244 9084 ft 305 kts 280°
2026-04-22 19:01 25.00170 55.91969 8716 ft 304 kts 280°
2026-04-22 19:02 25.00605 55.89692 8329 ft 304 kts 280°
2026-04-22 19:02 25.01042 55.87415 7947 ft 303 kts 280°
2026-04-22 19:02 25.01478 55.85146 7571 ft 302 kts 280°
2026-04-22 19:02 25.01914 55.82878 7197 ft 302 kts 279°
2026-04-22 19:03 25.02348 55.80612 6848 ft 302 kts 279°
2026-04-22 19:03 25.02781 55.78358 6525 ft 300 kts 279°
2026-04-22 19:03 25.03327 55.76183 6262 ft 285 kts 291°
2026-04-22 19:03 25.04225 55.74316 5922 ft 268 kts 299°
2026-04-22 19:04 25.05196 55.72616 5534 ft 254 kts 300°
2026-04-22 19:04 25.06094 55.71052 5565 ft 234 kts 299°
2026-04-22 19:04 25.06942 55.69546 5546 ft 231 kts 299°
2026-04-22 19:04 25.07799 55.68004 5452 ft 240 kts 299°
2026-04-22 19:05 25.08673 55.66430 5122 ft 240 kts 299°
2026-04-22 19:05 25.09544 55.64863 4837 ft 239 kts 299°
2026-04-22 19:05 25.10406 55.63307 4551 ft 237 kts 299°
2026-04-22 19:05 25.11260 55.61766 4260 ft 235 kts 300°
2026-04-22 19:06 25.12107 55.60238 3973 ft 232 kts 300°
2026-04-22 19:06 25.12946 55.58724 3684 ft 230 kts 300°
2026-04-22 19:06 25.13775 55.57229 3413 ft 227 kts 300°
2026-04-22 19:07 25.15405 55.54287 2880 ft 222 kts 301°
2026-04-22 19:07 25.16208 55.52837 2612 ft 220 kts 301°
2026-04-22 19:07 25.17000 55.51408 2366 ft 216 kts 302°
2026-04-22 19:07 25.17768 55.50021 2103 ft 206 kts 302°
2026-04-22 19:08 25.18471 55.48749 1847 ft 189 kts 302°
2026-04-22 19:08 25.19145 55.47534 1643 ft 184 kts 302°
2026-04-22 19:08 25.19779 55.46388 1407 ft 168 kts 302°
2026-04-22 19:08 25.20366 55.45329 1200 ft 156 kts 303°
2026-04-22 19:09 25.20922 55.44323 1004 ft 152 kts 303°
2026-04-22 19:09 25.21452 55.43332 841 ft 148 kts 302°
2026-04-22 19:09 25.21817 55.42667 699 ft 150 kts 303°
2026-04-22 19:09 25.22537 55.41373 419 ft 150 kts 302°
2026-04-22 19:10 25.23080 55.40400 262 ft 147 kts 302°
2026-04-22 19:10 25.23604 55.39459 52 ft 141 kts 302°
2026-04-22 19:10 25.24087 55.38590 29 ft 118 kts 301°
2026-04-22 19:10 25.24418 55.37994 30 ft 65 kts 301°
2026-04-22 19:11 25.24587 55.37646 27 ft 43 kts 288°
2026-04-22 19:11 25.24612 55.37458 27 ft 12 kts 270°
2026-04-22 19:11 25.24613 55.37383 27 ft 12 kts 271°
2026-04-22 19:11 25.24635 55.37247 26 ft 24 kts 295°
2026-04-22 19:12 25.24741 55.37053 27 ft 33 kts 301°
2026-04-22 19:12 25.24780 55.36863 26 ft 21 kts 243°
2026-04-22 19:12 25.24788 55.36706 26 ft 21 kts 285°
2026-04-22 19:12 25.24833 55.36567 30 ft 13 kts 261°
2026-04-22 19:13 25.24782 55.36509 29 ft 6 kts 212°
2026-04-22 19:13 25.24770 55.36501 29 ft 1 kts 211°
2026-04-22 19:13 25.24768 55.36500 29 ft 0 kts 211°